| time (UTC) | temp F | wind direction | speed knots | gust knots | rain 1hr in | rain 24hr in | rain mn in | humidity % | barometer mb |
| 20260503054539 | 47 | 16 | 6.1 | 14.8 | 0.00 | 0.02 | 0.00 | 73 | 1009.1 |
| 20260503053038 | 46 | 360 | 5.2 | 14.8 | 0.00 | 0.02 | 0.00 | 78 | 1009.3 |
| 20260503051540 | 45 | 349 | 5.2 | 10.4 | 0.00 | 0.02 | 0.00 | 87 | 1009.6 |
| 20260503050040 | 46 | 338 | 4.3 | 9.6 | 0.00 | 0.02 | 0.00 | 96 | 1009.6 |
| 20260503044537 | 47 | 338 | 0.9 | 2.6 | 0.00 | 0.02 | 0.00 | 98 | 1009.6 |
| 20260503043047 | 48 | 266 | 0.9 | 4.3 | 0.00 | 0.02 | 0.00 | 98 | 1010.2 |
| 20260503041538 | 48 | 271 | 0.0 | 3.5 | 0.00 | 0.02 | 0.00 | 98 | 1010.5 |
| 20260503040055 | 48 | 292 | 0.0 | 3.5 | 0.00 | 0.02 | 0.00 | 98 | 1010.4 |
| 20260503034544 | 48 | 0 | 0.0 | 2.6 | 0.00 | 0.02 | 0.02 | 97 | 1010.7 |
| 20260503033038 | 48 | 226 | 0.0 | 2.6 | 0.00 | 0.02 | 0.02 | 98 | 1010.6 |
| 20260503031537 | 48 | 225 | 0.0 | 2.6 | 0.00 | 0.02 | 0.02 | 98 | 1010.4 |
| 20260503030037 | 48 | 0 | 0.0 | 0.0 | 0.00 | 0.02 | 0.02 | 97 | 1010.4 |
| 20260503024538 | 48 | 0 | 0.0 | 1.7 | 0.00 | 0.02 | 0.02 | 97 | 1010.4 |
| 20260503023052 | 48 | 0 | 0.0 | 0.9 | 0.00 | 0.02 | 0.02 | 97 | 1010.6 |
| 20260503021550 | 48 | 173 | 0.0 | 1.7 | 0.00 | 0.02 | 0.02 | 97 | 1010.7 |
| 20260503020047 | 48 | 165 | 0.0 | 1.7 | 0.00 | 0.02 | 0.02 | 97 | 1010.8 |
| 20260503014537 | 48 | 166 | 0.0 | 2.6 | 0.01 | 0.02 | 0.02 | 97 | 1010.9 |
| 20260503013037 | 48 | 144 | 0.0 | 0.9 | 0.01 | 0.02 | 0.02 | 96 | 1011.1 |
| 20260503011546 | 48 | 0 | 0.0 | 4.3 | 0.01 | 0.02 | 0.02 | 96 | 1011.0 |
| 20260503010036 | 48 | 0 | 0.0 | 3.5 | 0.01 | 0.02 | 0.02 | 96 | 1010.9 |
| 20260503004610 | 49 | 143 | 0.9 | 5.2 | 0.01 | 0.01 | 0.01 | 96 | 1010.6 |
| 20260503003056 | 49 | 178 | 0.0 | 3.5 | 0.01 | 0.01 | 0.01 | 95 | 1010.8 |
| 20260503001542 | 49 | 0 | 0.0 | 1.7 | 0.01 | 0.01 | 0.01 | 95 | 1010.9 |
| 20260503000040 | 49 | 0 | 0.0 | 0.0 | 0.01 | 0.01 | 0.01 | 95 | 1010.9 |
| 20260502234544 | 49 | 0 | 0.0 | 0.0 | 0.00 | 0.00 | 0.00 | 95 | 1010.8 |
| 20260502233044 | 49 | 0 | 0.0 | 1.7 | 0.00 | 0.00 | 0.00 | 94 | 1010.8 |
| 20260502231540 | 49 | 0 | 0.0 | 1.7 | 0.00 | 0.00 | 0.00 | 94 | 1010.8 |
| 20260502230039 | 49 | 0 | 0.0 | 1.7 | 0.00 | 0.00 | 0.00 | 93 | 1010.7 |
| 20260502224543 | 49 | 0 | 0.0 | 1.7 | 0.00 | 0.00 | 0.00 | 93 | 1010.9 |
| 20260502223047 | 49 | 154 | 0.0 | 3.5 | 0.00 | 0.00 | 0.00 | 93 | 1010.8 |
| 20260502221543 | 50 | 143 | 1.7 | 6.1 | 0.00 | 0.00 | 0.00 | 93 | 1010.7 |
| 20260502220046 | 50 | 180 | 0.9 | 4.3 | 0.00 | 0.00 | 0.00 | 93 | 1010.6 |
| 20260502214539 | 50 | 153 | 1.7 | 5.2 | 0.00 | 0.00 | 0.00 | 93 | 1010.7 |
| 20260502213054 | 50 | 173 | 1.7 | 5.2 | 0.00 | 0.00 | 0.00 | 92 | 1010.7 |
| 20260502211538 | 50 | 0 | 0.9 | 4.3 | 0.00 | 0.00 | 0.00 | 93 | 1010.7 |
| 20260502210039 | 50 | 184 | 0.0 | 4.3 | 0.00 | 0.00 | 0.00 | 92 | 1010.8 |
| 20260502204539 | 50 | 178 | 1.7 | 7.0 | 0.00 | 0.00 | 0.00 | 91 | 1010.9 |
| 20260502203045 | 50 | 184 | 3.5 | 7.0 | 0.00 | 0.00 | 0.00 | 90 | 1010.9 |
| 20260502201541 | 50 | 142 | 1.7 | 5.2 | 0.00 | 0.00 | 0.00 | 89 | 1011.2 |
| 20260502194549 | 50 | 152 | 2.6 | 7.0 | 0.00 | 0.00 | 0.00 | 89 | 1011.3 |
| 20260502193037 | 50 | 190 | 3.5 | 11.3 | 0.00 | 0.00 | 0.00 | 89 | 1011.5 |
| 20260502191536 | 51 | 174 | 1.7 | 7.8 | 0.00 | 0.00 | 0.00 | 89 | 1011.7 |
| 20260502190046 | 51 | 165 | 3.5 | 7.8 | 0.00 | 0.00 | 0.00 | 88 | 1012.0 |
| 20260502184540 | 51 | 157 | 3.5 | 7.0 | 0.00 | 0.00 | 0.00 | 88 | 1012.0 |
| 20260502183045 | 52 | 159 | 2.6 | 7.8 | 0.00 | 0.00 | 0.00 | 88 | 1012.1 |
| 20260502181537 | 52 | 193 | 1.7 | 8.7 | 0.00 | 0.00 | 0.00 | 87 | 1012.0 |
| 20260502163052 | 52 | 126 | 1.7 | 11.3 | 0.00 | 0.00 | 0.00 | 84 | 1012.1 |
| 20260502161547 | 52 | 196 | 2.6 | 7.8 | 0.00 | 0.00 | 0.00 | 83 | 1012.3 |
| 20260502151537 | 52 | 202 | 2.6 | 7.8 | 0.00 | 0.00 | 0.00 | 83 | 1013.0 |
| 20260502123038 | 50 | 226 | 2.6 | 7.8 | 0.00 | 0.00 | 0.00 | 86 | 1013.2 |
| 20260502121537 | 50 | 221 | 2.6 | 7.8 | 0.00 | 0.00 | 0.00 | 87 | 1013.0 |
| 20260502114543 | 49 | 243 | 2.6 | 8.7 | 0.00 | 0.00 | 0.00 | 87 | 1013.0 |
| 20260502113054 | 49 | 186 | 3.5 | 10.4 | 0.00 | 0.00 | 0.00 | 87 | 1012.9 |
| 20260502111543 | 48 | 178 | 2.6 | 10.4 | 0.00 | 0.00 | 0.00 | 88 | 1012.7 |
| 20260502110037 | 48 | 188 | 3.5 | 7.0 | 0.00 | 0.00 | 0.00 | 88 | 1012.6 |
| 20260502104536 | 48 | 204 | 2.6 | 7.0 | 0.00 | 0.00 | 0.00 | 88 | 1012.8 |
| 20260502103059 | 48 | 184 | 1.7 | 6.1 | 0.00 | 0.00 | 0.00 | 88 | 1012.4 |
| 20260502101550 | 47 | 229 | 2.6 | 6.1 | 0.00 | 0.00 | 0.00 | 88 | 1012.3 |
| 20260502070040 | 47 | 223 | 0.9 | 3.5 | 0.00 | 0.00 | 0.00 | 79 | 1012.1 |
| 20260502064539 | 48 | 200 | 0.9 | 2.6 | 0.00 | 0.00 | 0.00 | 78 | 1012.1 |
| 20260502063045 | 48 | 206 | 0.9 | 5.2 | 0.00 | 0.00 | 0.00 | 78 | 1012.2 |
| 20260502061543 | 48 | 193 | 0.9 | 4.3 | 0.00 | 0.00 | 0.00 | 76 | 1012.5 |
| 20260502060039 | 48 | 223 | 1.7 | 6.1 | 0.00 | 0.00 | 0.00 | 77 | 1012.5 |